1497686400.09,33221,16.31,73352.3,-0.31,-0.81,-0.77,0,*6A
1497686401.34,33222,16.31,73356.3,-0.31,-0.93,-0.93,0,*60
1497686402.59,33223,16.31,73362.8,-0.31,-0.89,-0.89,0,*61
1497686403.85,33224,16.31,73372.8,-0.31,-0.89,-0.93,0,*6D
1497686405.12,33225,16.31,73364.3,-0.31,-1.05,-1.01,0,*63
1497686406.37,33226,16.31,73352.3,-0.31,-1.01,-0.93,0,*5E
1497686407.62,33227,16.31,73364.8,-0.31,-0.93,-0.93,0,*65
1497686408.87,33228,16.31,73364.5,-0.31,-0.93,-0.93,0,*6A
1497686410.13,33229,16.31,73368.3,-0.31,-1.01,-1.01,0,*6B
1497686411.36,33230,16.31,73370.3,-0.29,-0.89,-0.89,0,*6A
1497686412.61,33231,16.31,73366.5,-0.31,-0.89,-0.93,0,*69
1497686413.86,33232,16.31,73374.8,-0.31,-0.93,-0.93,0,*61
1497686415.1,33233,16.31,73374.3,-0.33,-1.09,-1.09,0,*62
1497686416.32,33234,16.31,73368.3,-0.31,-1.75,-1.75,0,*67
1497686417.53,33235,16.31,73370.8,-0.31,-2.27,-2.27,0,*66
1497686418.78,33236,16.31,73370.3,-0.33,-2.47,-2.47,0,*67
1497686420.02,33237,16.31,73362.3,-0.33,-2.67,-2.67,0,*66
1497686421.25,33238,16.31,73366.0,-0.37,-2.59,-2.59,0,*6D
1497686422.5,33239,16.31,73366.3,-0.37,-2.51,-2.63,0,*6D
1497686423.71,33240,16.31,73364.0,-0.43,-2.19,-2.19,0,*61
1497686424.98,33241,16.31,73372.3,-0.43,-1.91,-1.99,0,*68
1497686426.19,33242,16.31,73356.8,-0.43,-1.79,-1.75,0,*6F
1497686427.46,33243,16.31,73358.8,-0.43,-1.99,-1.99,0,*62
1497686428.72,33244,16.31,73346.5,-0.43,-1.91,-1.91,0,*65
1497686429.96,33245,16.31,73344.3,-0.45,-1.95,-2.03,0,*6E
1497686431.21,33246,16.31,73348.8,-0.45,-2.03,-2.03,0,*61
1497686432.42,33247,16.31,73350.3,-0.47,-2.35,-2.35,0,*62
1497686433.64,33248,16.31,73344.5,-0.47,-2.31,-2.31,0,*6D
1497686434.85,33249,16.31,73350.5,-0.47,-2.31,-2.31,0,*6C
1497686436.1,33250,16.31,73346.3,-0.49,-2.63,-2.59,0,*63
1497686437.37,33251,16.31,73342.3,-0.51,-2.47,-2.47,0,*62
1497686438.65,33252,16.31,73340.5,-0.51,-1.99,-2.07,0,*65
1497686439.87,33253,16.31,73342.0,-0.51,-1.63,-1.71,0,*63
1497686441.11,33254,16.31,73340.8,-0.51,-1.29,-1.35,0,*6A
1497686442.38,33255,16.31,73326.5,-0.51,-1.13,-1.13,0,*66
1497686443.57,33256,16.31,73332.8,-0.49,-1.21,-1.25,0,*68
1497686444.79,33257,16.31,73332.8,-0.49,-1.47,-1.51,0,*6A
1497686446.0,33258,16.31,73344.3,-0.51,-1.59,-1.59,0,*6B
1497686447.22,33259,16.31,73356.5,-0.51,-1.71,-1.75,0,*6E
1497686448.45,33260,16.31,73354.5,-0.51,-1.71,-1.71,0,*60
1497686449.72,33261,16.31,73344.0,-0.51,-1.99,-2.07,0,*65
1497686450.99,33262,16.31,73342.3,-0.51,-2.07,-2.07,0,*62
1497686452.24,33263,16.31,73344.0,-0.53,-1.91,-1.99,0,*69
1497686453.45,33264,16.31,73352.5,-0.55,-1.67,-1.79,0,*6F
1497686454.64,33265,16.31,73360.5,-0.53,-1.79,-1.79,0,*67
1497686455.91,33266,16.31,73366.0,-0.55,-1.99,-1.99,0,*62
1497686457.15,33267,16.31,73370.0,-0.53,-2.11,-2.11,0,*65
1497686458.39,33268,16.31,73374.0,-0.53,-1.99,-1.91,0,*62
1497686459.66,33269,16.31,73364.0,-0.55,-2.03,-1.99,0,*6D
1497686460.93,33270,16.31,73346.5,-0.55,-2.03,-2.03,0,*65
1497686462.17,33271,16.31,73346.3,-0.53,-1.91,-1.91,0,*62
1497686463.43,33272,16.31,73364.5,-0.55,-1.87,-1.87,0,*67
1497686464.64,33273,16.31,73356.3,-0.55,-2.39,-2.43,0,*6B
1497686465.87,33274,16.31,73358.3,-0.57,-2.59,-2.67,0,*6E
1497686467.14,33275,16.31,73354.5,-0.59,-2.55,-2.55,0,*6C
1497686468.41,33276,16.31,73346.8,-0.59,-2.67,-2.67,0,*6F
1497686469.6,33277,16.31,73348.8,-0.57,-2.23,-2.23,0,*60
1497686470.85,33278,16.31,73344.0,-0.61,-2.07,-2.11,0,*6D
1497686472.06,33279,16.31,73344.0,-0.61,-1.75,-1.83,0,*62
1497686473.33,33280,16.31,73344.8,-0.59,-1.47,-1.47,0,*66
1497686474.55,33281,16.31,73358.8,-0.59,-1.29,-1.21,0,*6F
1497686475.78,33282,16.31,73352.5,-0.59,-1.17,-1.17,0,*64
1497686477.05,33283,16.31,73352.0,-0.59,-1.47,-1.47,0,*65
1497686478.26,33284,16.31,73356.5,-0.57,-1.55,-1.47,0,*6F
1497686479.48,33285,16.31,73350.8,-0.57,-1.35,-1.29,0,*60
1497686480.67,33286,16.31,73348.0,-0.57,-1.29,-1.17,0,*63
1497686481.9,33287,16.31,73348.5,-0.57,-0.97,-0.85,0,*6C
1497686483.08,33288,16.31,73350.8,-0.57,-0.81,-0.73,0,*6D
1497686484.34,33289,16.31,73346.8,-0.55,-1.01,-1.01,0,*63
1497686485.53,33290,16.31,73350.8,-0.53,-0.77,-0.77,0,*6D
1497686486.7,33291,16.31,73350.3,-0.53,-0.65,-0.65,0,*6C
1497686487.92,33292,16.31,73348.5,-0.53,-1.17,-1.05,0,*6C
1497686489.14,33293,16.31,73344.8,-0.53,-0.93,-0.89,0,*65
1497686490.35,33294,16.31,73350.3,-0.51,-0.65,-0.65,0,*6B
1497686491.53,33295,16.31,73358.0,-0.49,-0.49,-0.45,0,*6F
1497686492.72,33296,16.31,73344.8,-0.49,-0.37,-0.33,0,*64
1497686493.93,33297,16.31,73338.8,-0.49,-0.37,-0.27,0,*60
1497686495.16,33298,16.31,73332.8,-0.47,-0.23,-0.19,0,*69
1497686496.33,33299,16.31,73330.5,-0.45,-0.11,0.01,0,*7F
1497686497.5,33300,16.31,73336.5,-0.45,-0.07,0.05,0,*4D
1497686498.69,33301,16.31,73340.5,-0.43,-0.03,0.09,0,*42
1497686499.9,33302,16.31,73346.8,-0.39,0.01,0.13,0,*58
1497686501.08,33303,16.31,73350.8,-0.39,0.01,0.09,0,*62
1497686502.29,33304,16.31,73358.8,-0.39,0.01,0.13,0,*5E
1497686503.5,33305,16.31,73354.0,-0.35,-0.11,-0.07,0,*57
1497686504.73,33306,16.31,73358.3,-0.35,-0.23,-0.11,0,*62
1497686505.9,33307,16.31,73356.8,-0.33,-0.07,0.05,0,*4B
1497686507.09,33308,16.31,73360.0,-0.33,0.01,0.13,0,*58
1497686508.3,33309,16.31,73332.5,-0.31,-0.19,-0.19,0,*68
1497686509.51,33310,16.31,73312.8,-0.31,-0.33,-0.33,0,*60
1497686510.69,33311,16.31,73326.5,-0.29,-0.41,-0.29,0,*66
1497686511.92,33312,16.31,73346.0,-0.27,-0.23,-0.11,0,*64
1497686513.12,33313,16.31,73372.5,-0.27,-0.29,-0.29,0,*64
1497686514.32,33314,16.31,73376.5,-0.27,-0.37,-0.29,0,*6C
1497686515.54,33315,16.31,73378.8,-0.27,-0.29,-0.23,0,*68
1497686516.79,33316,16.31,73386.0,-0.27,-0.23,-0.23,0,*61
1497686517.98,33317,16.31,73380.5,-0.27,0.09,0.09,0,*60
1497686519.19,33318,16.31,73376.0,-0.25,-0.27,-0.19,0,*60
1497686520.4,33319,16.31,73348.5,-0.25,-0.23,-0.19,0,*65
1497686521.61,33320,16.31,73356.8,-0.23,-0.19,-0.19,0,*60
1497686522.81,33321,16.31,73358.8,-0.23,-0.57,-0.61,0,*64
1497686524.06,33322,16.31,73364.8,-0.23,-0.85,-0.97,0,*61
1497686525.29,33323,16.31,73362.0,-0.25,-0.97,-1.01,0,*5B
1497686526.55,33324,16.31,73348.5,-0.23,-1.01,-1.01,0,*64
1497686527.81,33325,16.31,73354.3,-0.23,-0.97,-0.93,0,*61
1497686529.07,33326,16.31,73346.5,-0.23,-1.01,-1.09,0,*6E
1497686530.3,33327,16.31,73340.8,-0.25,-1.13,-1.13,0,*61
1497686531.52,33328,16.31,73326.8,-0.25,-1.13,-1.21,0,*6F
1497686532.78,33329,16.31,73344.5,-0.23,-1.01,-0.97,0,*57
1497686533.96,33330,16.31,73364.8,-0.25,-0.57,-0.57,0,*67
1497686535.21,33331,16.31,73360.3,-0.23,-0.97,-0.97,0,*60
1497686536.46,33332,16.31,73346.0,-0.25,-1.35,-1.43,0,*64
1497686537.69,33333,16.31,73334.3,-0.25,-0.97,-0.93,0,*60
1497686538.91,33334,16.31,73324.8,-0.25,-0.93,-0.93,0,*63
1497686540.09,33335,16.31,73338.8,-0.25,-0.61,-0.49,0,*68
1497686541.3,33336,16.31,73348.5,-0.27,-0.37,-0.37,0,*63
1497686542.47,33337,16.31,73354.3,-0.25,-0.61,-0.61,0,*60
1497686543.66,33338,16.31,73356.0,-0.25,-0.81,-0.73,0,*62
1497686544.87,33339,16.31,73354.8,-0.25,-0.85,-0.73,0,*67
1497686546.08,33340,16.31,73356.0,-0.23,-0.73,-0.69,0,*6D
1497686547.27,33341,16.31,73360.0,-0.25,-0.69,-0.57,0,*6C
1497686548.47,33342,16.31,73364.5,-0.23,-0.61,-0.49,0,*6E
1497686549.68,33343,16.31,73368.0,-0.23,-0.73,-0.73,0,*65
1497686550.89,33344,16.31,73368.0,-0.23,-1.25,-1.25,0,*62
1497686552.15,33345,16.31,73362.3,-0.23,-1.43,-1.43,0,*63
1497686553.39,33346,16.31,73360.0,-0.25,-1.13,-1.13,0,*66
1497686554.62,33347,16.31,73360.5,-0.25,-0.85,-0.85,0,*67
1497686555.8,33348,16.31,73382.8,-0.25,-0.33,-0.19,0,*60
1497686556.98,33349,16.31,73382.8,-0.25,-0.33,-0.37,0,*6D
1497686558.2,33350,16.31,73370.8,-0.25,-1.13,-1.25,0,*64
1497686559.38,33351,16.31,73358.0,-0.25,-1.55,-1.59,0,*6C
1497686560.63,33352,16.31,73350.5,-0.25,-1.83,-1.83,0,*63
1497686561.9,33353,16.31,73342.8,-0.27,-1.39,-1.39,0,*60
1497686563.17,33354,16.31,73340.3,-0.27,-1.39,-1.47,0,*6E
1497686564.37,33355,16.31,73356.0,-0.29,-1.71,-1.71,0,*68
1497686565.62,33356,16.31,73350.0,-0.29,-1.87,-1.91,0,*6C
1497686566.86,33357,16.31,73344.0,-0.29,-1.99,-2.03,0,*6A
1497686568.11,33358,16.31,73360.5,-0.29,-1.87,-1.87,0,*65
1497686569.32,33359,16.31,73366.0,-0.31,-1.67,-1.63,0,*69
1497686570.54,33360,16.31,73374.8,-0.31,-1.29,-1.33,0,*6C
1497686571.78,33361,16.31,73362.3,-0.31,-1.17,-1.09,0,*69
1497686573.0,33362,16.31,73358.8,-0.31,-1.75,-1.79,0,*69
1497686574.21,33363,16.31,73360.0,-0.31,-1.63,-1.75,0,*63
1497686575.46,33364,16.31,73360.5,-0.33,-1.43,-1.35,0,*60
1497686576.73,33365,16.31,73370.8,-0.31,-1.43,-1.43,0,*62
1497686577.92,33366,16.31,73356.8,-0.33,-1.55,-1.67,0,*62
1497686579.17,33367,16.31,73360.8,-0.33,-1.91,-1.99,0,*6A
1497686580.41,33368,16.31,73356.5,-0.33,-1.91,-1.83,0,*6E
1497686581.59,33369,16.31,73348.5,-0.37,-1.59,-1.51,0,*60
1497686582.81,33370,16.31,73344.0,-0.35,-1.25,-1.25,0,*62
1497686584.06,33371,16.31,73336.3,-0.35,-0.85,-0.93,0,*64
1497686585.26,33372,16.31,73342.8,-0.35,-0.69,-0.69,0,*60
1497686586.47,33373,16.31,73332.3,-0.35,-0.61,-0.57,0,*64
1497686587.64,33374,16.31,73342.5,-0.33,-0.61,-0.61,0,*60
1497686588.85,33375,16.31,73346.3,-0.33,-0.85,-0.73,0,*68
1497686590.08,33376,16.31,73340.8,-0.33,-0.97,-0.97,0,*62
1497686591.28,33377,16.31,73342.0,-0.33,-1.21,-1.21,0,*63
1497686592.5,33378,16.31,73338.8,-0.31,-1.21,-1.21,0,*6E
1497686593.72,33379,16.31,73330.8,-0.31,-1.63,-1.63,0,*6F
1497686594.96,33380,16.31,73316.5,-0.33,-1.47,-1.47,0,*6B
1497686596.18,33381,16.31,73342.5,-0.33,-1.55,-1.47,0,*69
1497686597.43,33382,16.31,73350.0,-0.33,-1.47,-1.47,0,*69
1497686598.62,33383,16.31,73344.3,-0.33,-1.25,-1.33,0,*6F
1497686599.84,33384,16.31,73338.3,-0.35,-1.21,-1.21,0,*69
1497686601.06,33385,16.31,73342.3,-0.35,-1.21,-1.21,0,*68
1497686602.28,33386,16.31,73370.8,-0.35,-1.55,-1.59,0,*67
1497686603.49,33387,16.31,73356.8,-0.35,-1.79,-1.79,0,*6A
1497686604.68,33388,16.31,73344.8,-0.37,-2.23,-2.31,0,*64
1497686605.87,33389,16.31,73340.5,-0.37,-2.27,-2.35,0,*65
1497686607.11,33390,16.31,73342.5,-0.37,-1.83,-1.83,0,*6E
1497686608.3,33391,16.31,73298.8,-0.37,-1.75,-1.75,0,*6F
1497686609.49,33392,16.31,73310.8,-0.37,-1.63,-1.71,0,*6F
1497686610.74,33393,16.31,73316.3,-0.37,-1.39,-1.39,0,*6D
1497686612.01,33394,16.31,73310.3,-0.39,-1.47,-1.47,0,*64
1497686613.25,33395,16.31,73318.0,-0.39,-1.35,-1.29,0,*68
1497686614.47,33396,16.31,73330.8,-0.43,-1.21,-1.21,0,*6B
1497686615.73,33397,16.31,73346.0,-0.39,-1.13,-1.13,0,*67
1497686616.98,33398,16.31,73350.3,-0.39,-0.97,-0.97,0,*68
1497686618.24,33399,16.31,73354.8,-0.43,-1.05,-0.93,0,*5A
1497686619.46,33400,16.31,73366.8,-0.39,-0.73,-0.73,0,*6E
1497686620.69,33401,16.31,73366.0,-0.39,-0.85,-0.77,0,*62
1497686621.9,33402,16.31,73372.8,-0.39,-0.77,-0.77,0,*6C
1497686623.11,33403,16.31,73366.5,-0.37,-1.13,-1.17,0,*67
1497686624.31,33404,16.31,73366.0,-0.37,-1.29,-1.29,0,*64
1497686625.53,33405,16.31,73364.5,-0.37,-0.89,-0.97,0,*6A
1497686626.72,33406,16.31,73364.3,-0.37,-0.77,-0.73,0,*62
1497686627.93,33407,16.31,73358.5,-0.35,-0.69,-0.69,0,*65
1497686629.13,33408,16.31,73348.5,-0.35,-0.69,-0.61,0,*62
1497686630.36,33409,16.31,73374.8,-0.35,-0.85,-0.73,0,*62
1497686631.63,33410,16.31,73372.3,-0.35,-0.97,-1.05,0,*59
1497686632.9,33411,16.31,73374.8,-0.35,-1.35,-1.35,0,*62
1497686634.12,33412,16.31,73368.5,-0.35,-1.67,-1.71,0,*66
1497686635.31,33413,16.31,73368.5,-0.37,-1.71,-1.71,0,*62
1497686636.5,33414,16.31,73372.5,-0.37,-1.51,-1.51,0,*65
1497686637.71,33415,16.31,73370.3,-0.37,-1.35,-1.29,0,*69
1497686638.91,33416,16.31,73378.0,-0.37,-1.17,-1.17,0,*67
1497686640.1,33417,16.31,73368.8,-0.37,-1.25,-1.17,0,*67
1497686641.29,33418,16.31,73374.5,-0.37,-1.17,-1.17,0,*69
1497686642.53,33419,16.31,73372.5,-0.37,-1.13,-1.13,0,*68
1497686643.76,33420,16.31,73374.3,-0.37,-1.13,-1.13,0,*62
1497686645.0,33421,16.31,73384.0,-0.37,-1.09,-1.13,0,*68
1497686646.26,33422,16.31,73384.3,-0.35,-0.97,-1.05,0,*58
1497686647.49,33423,16.31,73376.3,-0.37,-1.13,-1.13,0,*61
1497686648.74,33424,16.31,73382.3,-0.35,-1.47,-1.51,0,*63
1497686649.92,33425,16.31,73384.5,-0.37,-1.51,-1.51,0,*67
1497686651.11,33426,16.31,73382.5,-0.37,-1.59,-1.59,0,*64
1497686652.29,33427,16.31,73388.5,-0.37,-1.59,-1.59,0,*65
1497686653.53,33428,16.31,73366.5,-0.37,-2.03,-2.03,0,*6A
1497686654.74,33429,16.31,73348.0,-0.39,-2.15,-2.27,0,*64
1497686655.95,33430,16.31,73352.3,-0.43,-2.15,-2.15,0,*60
1497686657.19,33431,16.31,73360.5,-0.43,-1.79,-1.91,0,*67
1497686658.37,33432,16.31,73366.3,-0.45,-1.55,-1.55,0,*64
1497686659.57,33433,16.31,73372.3,-0.45,-1.67,-1.71,0,*62
1497686660.76,33434,16.31,73364.3,-0.45,-1.79,-1.79,0,*62
1497686662.02,33435,16.31,73368.5,-0.47,-1.83,-1.83,0,*61
1497686663.22,33436,16.31,73374.0,-0.45,-1.71,-1.79,0,*68
1497686664.44,33437,16.31,73372.3,-0.47,-1.71,-1.71,0,*63
1497686665.63,33438,16.31,73370.8,-0.45,-1.79,-1.79,0,*6E
1497686666.83,33439,16.31,73360.0,-0.45,-1.71,-1.71,0,*6F
1497686668.04,33440,16.31,73360.3,-0.47,-1.79,-1.79,0,*63
1497686669.27,33441,16.31,73360.3,-0.47,-1.71,-1.71,0,*62
1497686670.53,33442,16.31,73366.0,-0.47,-1.47,-1.47,0,*61
1497686671.75,33443,16.31,73372.8,-0.47,-1.71,-1.67,0,*67
1497686672.99,33444,16.31,73370.3,-0.47,-1.83,-1.79,0,*62
1497686674.2,33445,16.31,73376.0,-0.47,-1.67,-1.59,0,*6B
1497686675.39,33446,16.31,73372.0,-0.45,-1.33,-1.33,0,*67
1497686676.61,33447,16.31,73382.3,-0.47,-1.17,-1.17,0,*64
1497686677.86,33448,16.31,73374.8,-0.47,-0.97,-0.93,0,*6F
1497686679.12,33449,16.31,73370.8,-0.47,-1.05,-0.97,0,*50
1497686680.38,33450,16.31,73366.5,-0.47,-1.05,-0.97,0,*58
1497686681.57,33451,16.31,73364.0,-0.45,-1.25,-1.25,0,*61
1497686682.81,33452,16.31,73366.3,-0.47,-1.43,-1.55,0,*67
1497686684.07,33453,16.31,73386.8,-0.47,-1.35,-1.35,0,*61
1497686685.34,33454,16.31,73400.5,-0.47,-1.43,-1.43,0,*66
1497686686.6,33455,16.31,73398.3,-0.47,-1.43,-1.35,0,*66
1497686687.82,33456,16.31,73396.0,-0.47,-1.33,-1.25,0,*63
1497686689.0,33457,16.31,73382.8,-0.45,-1.25,-1.25,0,*67
1497686690.19,33458,16.31,73370.5,-0.45,-1.33,-1.33,0,*68
1497686691.41,33459,16.31,73372.8,-0.47,-1.17,-1.17,0,*6B
1497686692.64,33460,16.31,73382.3,-0.47,-0.93,-0.81,0,*62
1497686693.86,33461,16.31,73376.0,-0.45,-0.85,-0.85,0,*62
1497686695.09,33462,16.31,73376.0,-0.45,-0.85,-0.85,0,*61
1497686696.32,33463,16.31,73384.5,-0.45,-1.09,-0.97,0,*56
1497686697.58,33464,16.31,73394.0,-0.43,-1.01,-1.01,0,*61
1497686698.85,33465,16.31,73388.0,-0.43,-1.05,-1.05,0,*60
1497686700.1,33466,16.31,73382.5,-0.43,-1.01,-0.93,0,*59
1497686701.35,33467,16.31,73376.5,-0.43,-0.93,-0.89,0,*69
1497686702.62,33468,16.31,73372.0,-0.43,-1.05,-1.05,0,*6D
1497686703.88,33469,16.31,73372.5,-0.43,-1.01,-0.97,0,*52
1497686705.13,33470,16.31,73372.0,-0.39,-0.85,-0.89,0,*65
1497686706.38,33471,16.31,73372.3,-0.39,-0.85,-0.93,0,*6F
1497686707.64,33472,16.31,73380.8,-0.39,-1.09,-1.01,0,*63
1497686708.86,33473,16.31,73392.8,-0.43,-1.21,-1.17,0,*62
1497686710.13,33474,16.31,73386.0,-0.39,-1.39,-1.47,0,*64
1497686711.34,33475,16.31,73380.0,-0.39,-1.51,-1.51,0,*6C
1497686712.55,33476,16.31,73368.3,-0.39,-1.51,-1.59,0,*67
1497686713.81,33477,16.31,73382.8,-0.43,-1.87,-1.91,0,*64
1497686715.02,33478,16.31,73380.0,-0.43,-2.19,-2.19,0,*6C
1497686716.26,33479,16.31,73384.8,-0.45,-1.95,-1.95,0,*6B
1497686717.46,33480,16.31,73376.5,-0.45,-1.71,-1.71,0,*6D
1497686718.7,33481,16.31,73372.8,-0.45,-1.47,-1.47,0,*6C
1497686719.94,33482,16.31,73354.5,-0.45,-1.47,-1.47,0,*6F
1497686721.17,33483,16.31,73366.0,-0.45,-1.95,-1.95,0,*6E
1497686722.36,33484,16.31,73360.5,-0.45,-1.67,-1.59,0,*64
1497686723.63,33485,16.31,73352.3,-0.47,-1.43,-1.35,0,*6B
1497686724.87,33486,16.31,73336.8,-0.45,-1.43,-1.35,0,*6A
1497686726.11,33487,16.31,73332.8,-0.45,-1.43,-1.43,0,*6A
1497686727.31,33488,16.31,73330.3,-0.45,-1.25,-1.21,0,*61
1497686728.54,33489,16.31,73330.5,-0.45,-1.09,-1.09,0,*64
1497686729.77,33490,16.31,73330.0,-0.45,-0.97,-0.93,0,*68
1497686731.0,33491,16.31,73348.8,-0.45,-0.85,-0.93,0,*6A
1497686732.2,33492,16.31,73366.5,-0.45,-0.85,-0.81,0,*6A
1497686733.39,33493,16.31,73376.3,-0.45,-0.81,-0.81,0,*6F
1497686734.59,33494,16.31,73362.0,-0.43,-0.77,-0.65,0,*6D
1497686735.83,33495,16.31,73362.8,-0.43,-0.93,-0.93,0,*6F
1497686737.1,33496,16.31,73378.3,-0.43,-1.05,-1.01,0,*68
1497686738.36,33497,16.31,73378.0,-0.43,-1.01,-1.05,0,*69
1497686739.62,33498,16.31,73376.5,-0.43,-1.01,-0.93,0,*58
1497686740.87,33499,16.31,73376.5,-0.39,-0.85,-0.85,0,*6E
1497686742.12,33500,16.31,73376.3,-0.39,-0.89,-0.97,0,*60
1497686743.35,33501,16.31,73372.5,-0.43,-0.81,-0.89,0,*6B
1497686744.56,33502,16.31,73370.0,-0.43,-0.77,-0.77,0,*60
1497686745.77,33503,16.31,73368.5,-0.43,-0.81,-0.81,0,*61
1497686747.0,33504,16.31,73368.8,-0.39,-0.85,-0.73,0,*62
1497686748.21,33505,16.31,73370.5,-0.39,-0.77,-0.77,0,*6A
1497686749.42,33506,16.31,73374.8,-0.39,-0.77,-0.73,0,*6D
1497686750.63,33507,16.31,73380.5,-0.39,-0.73,-0.73,0,*68
1497686751.86,33508,16.31,73386.0,-0.39,-0.77,-0.85,0,*6A
1497686753.11,33509,16.31,73388.5,-0.39,-0.85,-0.85,0,*66
1497686754.34,33510,16.31,73384.0,-0.37,-0.89,-0.85,0,*6C
1497686755.57,33511,16.31,73382.8,-0.37,-0.89,-0.85,0,*6D
1497686756.79,33512,16.31,73384.5,-0.37,-0.89,-0.85,0,*6E
1497686758.02,33513,16.31,73384.5,-0.37,-0.89,-0.89,0,*63
1497686759.25,33514,16.31,73384.0,-0.37,-0.85,-0.85,0,*64
1497686760.5,33515,16.31,73390.3,-0.35,-0.97,-0.93,0,*63
1497686761.75,33516,16.31,73392.3,-0.35,-0.93,-0.97,0,*60
1497686763.0,33517,16.31,73392.5,-0.35,-0.93,-0.93,0,*65
1497686764.23,33518,16.31,73402.8,-0.37,-0.97,-0.97,0,*68
1497686765.48,33519,16.31,73396.8,-0.35,-0.93,-0.97,0,*6F
1497686766.74,33520,16.31,73406.0,-0.35,-1.05,-0.97,0,*5B
1497686768.0,33521,16.31,73398.3,-0.35,-1.09,-1.05,0,*6C
1497686769.27,33522,16.31,73396.3,-0.35,-1.09,-1.09,0,*63
1497686770.48,33523,16.31,73396.8,-0.37,-1.13,-1.17,0,*64
1497686771.74,33524,16.31,73394.3,-0.35,-1.05,-0.97,0,*5F
1497686773.0,33525,16.31,73396.0,-0.35,-0.85,-0.85,0,*64
1497686774.18,33526,16.31,73398.5,-0.37,-0.73,-0.81,0,*68
1497686775.41,33527,16.31,73404.0,-0.37,-0.85,-0.85,0,*64
1497686776.65,33528,16.31,73408.3,-0.35,-0.93,-0.93,0,*69
1497686777.9,33529,16.31,73400.0,-0.35,-1.13,-1.21,0,*69
1497686779.17,33530,16.31,73396.0,-0.35,-1.47,-1.47,0,*60
1497686780.44,33531,16.31,73380.5,-0.35,-1.43,-1.43,0,*61
1497686781.69,33532,16.31,73376.8,-0.35,-1.33,-1.35,0,*64
1497686782.9,33533,16.31,73376.8,-0.35,-1.25,-1.25,0,*63
1497686784.17,33534,16.31,73382.8,-0.35,-1.05,-1.05,0,*64
1497686785.4,33535,16.31,73388.3,-0.35,-0.85,-0.81,0,*61
1497686786.61,33536,16.31,73390.5,-0.37,-0.85,-0.77,0,*69
1497686787.84,33537,16.31,73394.3,-0.35,-0.85,-0.73,0,*6E
1497686789.1,33538,16.31,73394.3,-0.35,-0.85,-0.85,0,*68
1497686790.35,33539,16.31,73400.5,-0.35,-0.93,-0.97,0,*6D
1497686791.6,33540,16.31,73398.8,-0.35,-0.97,-0.97,0,*67
1497686792.86,33541,16.31,73398.8,-0.35,-1.05,-0.93,0,*58
1497686794.09,33542,16.31,73392.3,-0.37,-1.01,-0.89,0,*56
1497686795.35,33543,16.31,73394.5,-0.35,-0.97,-0.93,0,*60
1497686796.6,33544,16.31,73396.8,-0.35,-0.85,-0.97,0,*60
1497686797.79,33545,16.31,73396.3,-0.37,-1.25,-1.25,0,*60
1497686799.0,33546,16.31,73398.8,-0.35,-1.33,-1.25,0,*66
1497686800.24,33547,16.31,73398.3,-0.35,-1.21,-1.13,0,*61
1497686801.44,33548,16.31,73398.3,-0.37,-1.29,-1.29,0,*6D
1497686802.7,33549,16.31,73400.3,-0.35,-1.43,-1.43,0,*6E
1497686803.89,33550,16.31,73398.8,-0.37,-1.51,-1.59,0,*6C
1497686805.13,33551,16.31,73394.8,-0.37,-1.39,-1.39,0,*65
1497686806.32,33552,16.31,73394.8,-0.37,-1.29,-1.25,0,*6A
1497686807.58,33553,16.31,73390.3,-0.35,-1.13,-1.13,0,*65
1497686808.81,33554,16.31,73388.8,-0.37,-0.97,-0.89,0,*6F
1497686810.0,33555,16.31,73390.5,-0.37,-0.77,-0.73,0,*65
1497686811.17,33556,16.31,73394.0,-0.37,-0.65,-0.61,0,*66
1497686812.35,33557,16.31,73390.8,-0.37,-0.65,-0.61,0,*67
1497686813.53,33558,16.31,73380.0,-0.37,-0.65,-0.53,0,*69
1497686814.74,33559,16.31,73392.8,-0.35,-0.57,-0.57,0,*6F
1497686815.95,33560,16.31,73402.0,-0.35,-0.73,-0.73,0,*65
1497686817.17,33561,16.31,73398.3,-0.35,-0.81,-0.73,0,*69
1497686818.39,33562,16.31,73398.8,-0.37,-0.85,-0.89,0,*69
1497686819.6,33563,16.31,73394.8,-0.35,-0.69,-0.69,0,*66
1497686820.8,33564,16.31,73392.0,-0.35,-0.69,-0.61,0,*69
1497686822.02,33565,16.31,73410.0,-0.35,-0.73,-0.73,0,*60
1497686823.27,33566,16.31,73414.5,-0.35,-0.85,-0.85,0,*63
1497686824.53,33567,16.31,73398.0,-0.35,-1.05,-0.97,0,*58
1497686825.78,33568,16.31,73396.0,-0.31,-0.89,-0.93,0,*62
1497686827.02,33569,16.31,73402.3,-0.31,-0.89,-0.77,0,*69
1497686828.2,33570,16.31,73390.3,-0.33,-0.69,-0.69,0,*62
1497686829.41,33571,16.31,73390.3,-0.33,-0.81,-0.85,0,*67
1497686830.64,33572,16.31,73414.3,-0.33,-0.93,-0.93,0,*60
1497686831.9,33573,16.31,73408.5,-0.31,-1.01,-0.93,0,*59
1497686833.14,33574,16.31,73402.3,-0.33,-1.05,-1.05,0,*66
1497686834.38,33575,16.31,73396.5,-0.33,-1.09,-1.05,0,*6B
1497686835.61,33576,16.31,73396.5,-0.33,-0.85,-0.93,0,*63
1497686836.87,33577,16.31,73400.8,-0.31,-1.01,-0.93,0,*5D
1497686838.11,33578,16.31,73396.3,-0.33,-1.05,-0.97,0,*50
1497686839.33,33579,16.31,73392.3,-0.31,-1.17,-1.17,0,*69
1497686840.57,33580,16.31,73396.5,-0.33,-1.35,-1.35,0,*6D
1497686841.79,33581,16.31,73406.0,-0.31,-1.29,-1.29,0,*6E
1497686843.04,33582,16.31,73402.0,-0.33,-1.35,-1.43,0,*6E
1497686844.28,33583,16.31,73400.0,-0.33,-1.43,-1.35,0,*6F
1497686845.5,33584,16.31,73404.0,-0.33,-1.35,-1.33,0,*6F
1497686846.68,33585,16.31,73404.3,-0.33,-1.25,-1.25,0,*68
1497686847.93,33586,16.31,73398.3,-0.35,-1.47,-1.55,0,*6E
1497686849.16,33587,16.31,73398.3,-0.35,-1.35,-1.33,0,*6A
1497686850.42,33588,16.31,73394.3,-0.35,-1.09,-1.09,0,*63
1497686851.68,33589,16.31,73388.0,-0.35,-0.85,-0.93,0,*65
1497686852.93,33590,16.31,73386.5,-0.35,-0.93,-0.85,0,*6D
1497686854.19,33591,16.31,73390.8,-0.35,-1.09,-1.09,0,*6B
1497686855.4,33592,16.31,73392.3,-0.35,-1.33,-1.33,0,*68
1497686856.62,33593,16.31,73388.0,-0.35,-1.33,-1.25,0,*6E
1497686857.81,33594,16.31,73376.0,-0.37,-1.33,-1.25,0,*6B
1497686859.08,33595,16.31,73372.0,-0.35,-1.47,-1.47,0,*6F
1497686860.33,33596,16.31,73382.5,-0.35,-1.33,-1.35,0,*6A
1497686861.53,33597,16.31,73392.3,-0.37,-1.35,-1.25,0,*6E
1497686862.75,33598,16.31,73390.3,-0.37,-1.13,-1.17,0,*64
1497686863.99,33599,16.31,73394.5,-0.37,-1.13,-1.13,0,*61
1497686865.24,33600,16.31,73398.8,-0.35,-0.97,-0.93,0,*64
1497686866.5,33601,16.31,73398.8,-0.35,-0.97,-0.85,0,*62
1497686867.73,33602,16.31,73396.0,-0.35,-0.85,-0.81,0,*66
1497686868.95,33603,16.31,73402.5,-0.37,-0.89,-0.85,0,*6D
1497686870.17,33604,16.31,73404.0,-0.35,-0.73,-0.73,0,*64
1497686871.4,33605,16.31,73408.0,-0.35,-0.81,-0.85,0,*61
1497686872.65,33606,16.31,73402.5,-0.35,-0.85,-0.85,0,*66
1497686873.91,33607,16.31,73396.0,-0.35,-1.09,-1.13,0,*6C
1497686875.18,33608,16.31,73398.3,-0.35,-1.83,-1.91,0,*6B
1497686876.42,33609,16.31,73398.3,-0.37,-2.47,-2.47,0,*6B
1497686877.61,33610,16.31,73400.8,-0.37,-3.11,-3.23,0,*62
1497686878.83,33611,16.31,73388.5,-0.39,-3.35,-3.35,0,*6C
1497686880.03,33612,16.31,73388.5,-0.43,-3.07,-3.15,0,*61
1497686881.25,33613,16.31,73394.0,-0.43,-2.83,-2.95,0,*64
1497686882.48,33614,16.31,73388.0,-0.47,-2.71,-2.79,0,*68
1497686883.69,33615,16.31,73382.8,-0.47,-2.83,-2.83,0,*61
1497686884.9,33616,16.31,73382.8,-0.51,-2.83,-2.91,0,*66
1497686886.17,33617,16.31,73382.5,-0.51,-2.71,-2.71,0,*64
1497686887.41,33618,16.31,73384.8,-0.51,-2.75,-2.87,0,*66
1497686888.65,33619,16.31,73380.3,-0.53,-2.75,-2.75,0,*68
1497686889.92,33620,16.31,73382.3,-0.55,-2.51,-2.51,0,*64
1497686891.13,33621,16.31,73380.5,-0.55,-2.43,-2.43,0,*65
1497686892.37,33622,16.31,73378.3,-0.55,-2.43,-2.51,0,*65
1497686893.58,33623,16.31,73370.5,-0.55,-2.39,-2.31,0,*6F
1497686894.8,33624,16.31,73368.0,-0.59,-2.35,-2.31,0,*68
1497686896.02,33625,16.31,73358.0,-0.59,-2.31,-2.31,0,*6D
1497686897.27,33626,16.31,73348.8,-0.59,-2.15,-2.07,0,*6D
1497686898.53,33627,16.31,73348.0,-0.59,-1.95,-1.95,0,*6F
1497686899.8,33628,16.31,73354.5,-0.59,-1.83,-1.83,0,*60
1497686901.07,33629,16.31,73352.8,-0.59,-1.91,-1.83,0,*62
1497686902.34,33630,16.31,73354.3,-0.59,-1.83,-1.83,0,*69
1497686903.55,33631,16.31,73352.0,-0.57,-1.83,-1.79,0,*63
1497686904.83,33632,16.31,73354.5,-0.59,-1.47,-1.47,0,*6B
1497686906.07,33633,16.31,73356.0,-0.57,-1.35,-1.35,0,*64
1497686907.28,33634,16.31,73356.8,-0.57,-1.35,-1.33,0,*65
1497686908.5,33635,16.31,73366.3,-0.59,-1.29,-1.21,0,*64